Location: Blankensee
(53.5126°N, 14.3055°E)
Time: 17:26:01
(UTC+00:00)

IDEFIX/ARIANE 42P - Pass Details

Date: 08 August 2020
Orbit: 786 x 802 km, 98.4° (Epoch: 19 September)

Event Time Altitude Azimuth Distance (km) Brightness Sun altitude
Rises 01:39:07 0° 20° (NNE) 3,294 7.3 -13.3°
Reaches altitude 10° 01:41:38 10° 29° (NNE) 2,361 6.5 -13.1°
Maximum altitude 01:46:26 36° 96° (E) 1,228 3.9 -12.6°
Drops below altitude 10° 01:51:13 10° 163° (SSE) 2,352 4.7 -12.2°
Enters shadow 01:53:09 - 170° (S) 3,069 5.2 -12.0°
